sat.trackr.live / text

‹ back to catalog

STARLINK-34309

NORAD 64167 · 2025-112X

PAYLOAD ACTIVE UNKNOWN

§ Identity

Operator
Country
US
Launch date
2025-05-27
Launch site
AFWTR
Launch vehicle
Mass (kg)
RCS (m²)

Purposes: comms

External: N2YO · Heavens-Above · Gunter

§ Orbital elements

Epoch: 2026-09-20T20:32:57.535008Z

Period
93.90 min
Inclination
97.2844°
Eccentricity
0.0000483
Mean motion
15.33468369 rev/d
Perigee alt
465.1 km
Apogee alt
465.8 km
Semi-major
6,843.6 km
B*
7.1784e-4
RAAN
310.9422°
Arg perigee
173.8108°
Mean anomaly
186.3141°
Rev number
7,280

§ Raw data

STARLINK-343091 64167U 25112X   26263.85622147  .00023187  00000+0  71784-3 0  99992 64167  97.2844 310.9422 0000483 173.8108 186.3141 15.33468369 72803

JSON: /api/v1/satellites/64167 · /tle

For live sub-satellite position, see the globe view (requires WebGL).

§ Visibility from observer

Set your observer location to see the next 7 days of passes ≥ 10°. The values pass through the URL so the page stays shareable.

No JS? Fill the form by hand. The geolocation button needs JavaScript.